Location: 22
(39.7117°N, 89.5929°W)
Time: 16:27:30
(UTC-06:00)

Hubble Space Telescope - Pass Details

Date: 08 October 2023
Orbit: 519 x 522 km, 28.5° (Epoch: 03 December)

Event Time Altitude Azimuth Distance (km) Brightness Sun altitude
Rises 20:21:56 0° 235° (SW) 2,633 4.9 -22.3°
Reaches altitude 10° 20:24:53 10° 213° (SSW) 1,744 3.6 -22.8°
Enters shadow 20:26:18 14° 193° (SSW) 1,481 3.0 -23.1°
